sat.trackr.live / text

‹ back to catalog

YAMAL 401

NORAD 40345 · 2014-082A

PAYLOAD ACTIVE UNKNOWN

§ Identity

Operator
Country
CIS
Launch date
2014-12-15
Launch site
TYMSC
Launch vehicle
Mass (kg)
RCS (m²)
59.76

Purposes: comms

External: N2YO · Heavens-Above · Gunter

§ Orbital elements

Epoch: 2026-05-24T23:02:16.799424Z

Period
1,436.09 min
Inclination
0.0132°
Eccentricity
0.0000418
Mean motion
1.00272068 rev/d
Perigee alt
35,784.8 km
Apogee alt
35,788.3 km
Semi-major
42,164.7 km
B*
0.0000e+0
RAAN
273.8398°
Arg perigee
241.1874°
Mean anomaly
163.0465°
Rev number
4,168

§ Raw data

YAMAL 4011 40345U 14082A   26144.95991666  .00000000  00000+0  00000+0 0  99972 40345   0.0132 273.8398 0000418 241.1874 163.0465  1.00272068 41684

JSON: /api/v1/satellites/40345 · /tle

For live sub-satellite position, see the globe view (requires WebGL).

§ Visibility from observer

Set your observer location to see the next 7 days of passes ≥ 10°. The values pass through the URL so the page stays shareable.

No JS? Fill the form by hand. The geolocation button needs JavaScript.